Regional Weather Roundup
Issued by NWS

Home | Current Version | Previous Version | Text Only | Print | Product List | Glossary Off
Versions: 1 2 3 4 5 6 7 8 9 10 11 12 13 14 15 16 17 18 19 20 21 22 23 24 25 26 27 28 29 30 31 32 33 34 35 36 37 38 39 40 41 42 43 44 45 46 47 48 49 50

000
ASUS43 KBIS 050010
RWRND

NORTH DAKOTA REGIONAL WEATHER ROUNDUP
NATIONAL WEATHER SERVICE BISMARCK ND
700 PM CDT MON MAY 04 2015

NOTE: "FAIR" INDICATES FEW OR NO CLOUDS BELOW 12,000 FEET WITH NO
SIGNIFICANT WEATHER AND/OR OBSTRUCTIONS TO VISIBILITY.


NDZ001>003-009>011-017-050100-
NORTHWEST NORTH DAKOTA

CITY           SKY/WX    TMP DP  RH WIND       PRES   REMARKS
WILLISTON      MOSUNNY   69  39  33 SE14G24   30.01F
6HR MIN TEMP:  68; 6HR MAX TEMP:  73;

MINOT          SUNNY     69  25  19 S17       30.07F
MINOT AFB      SUNNY     72  27  18 S16G26    30.06S
$$

NDZ018>021-031>035-040>046-050100-
SOUTHWEST NORTH DAKOTA

CITY           SKY/WX    TMP DP  RH WIND       PRES   REMARKS
BISMARCK       MOSUNNY   67  24  19 S14G22    30.14S
6HR MIN TEMP:  66; 6HR MAX TEMP:  70;

DICKINSON      SUNNY     59  32  36 S23G30    30.08F
GARRISON         N/A     67  30  25 S13       30.09F
6HR MIN TEMP:  65; 6HR MAX TEMP:  71;

HETTINGER ARPT CLOUDY    52  36  54 SE15      30.13F
$$

NDZ004>008-012>016-024-026-027-054-050100-
NORTHEAST NORTH DAKOTA

CITY           SKY/WX    TMP DP  RH WIND       PRES   REMARKS
GRAND FORKS    SUNNY     69  25  19 CALM      30.15S
GRND FRKS AFB  SUNNY     68  24  19 N5        30.15S
DEVILS LAKE    SUNNY     66  27  22 SE8       30.13F
$$

NDZ022-023-025-028>030-036>039-047>053-050100-
SOUTHEAST NORTH DAKOTA

CITY           SKY/WX    TMP DP  RH WIND       PRES   REMARKS
FARGO          MOSUNNY   68  26  20 W8        30.16S
6HR MIN TEMP:  64; 6HR MAX TEMP:  70;

JAMESTOWN      SUNNY     66  21  18 CALM      30.15S
$$



USA.gov is the U.S. government's official web portal to all federal, state and local government web resources and services.